TimeCEST,TemperatureF,Dew PointF,Humidity,Sea Level PressureIn,VisibilityMPH,Wind Direction,Wind SpeedMPH,Gust SpeedMPH,PrecipitationIn,Events,Conditions,WindDirDegrees,DateUTC
12:20 AM,62.6,62.6,100,29.83,6.2,Calm,Calm,-,N/A,,Scattered Clouds,0,2012-10-13 22:20:00
12:50 AM,62.6,60.8,94,29.83,6.2,NW,2.3,-,N/A,,Scattered Clouds,310,2012-10-13 22:50:00
1:20 AM,64.4,62.6,94,29.83,6.2,Calm,Calm,-,N/A,,Scattered Clouds,0,2012-10-13 23:20:00
2:20 AM,64.4,62.6,94,29.83,6.2,NE,1.2,-,N/A,,Scattered Clouds,50,2012-10-14 00:20:00
2:50 AM,62.6,62.6,100,29.83,5.0,Variable,1.2,-,N/A,,Partly Cloudy,0,2012-10-14 00:50:00
3:50 AM,62.6,60.8,94,29.83,3.7,NNW,3.5,-,N/A,,Unknown,340,2012-10-14 01:50:00
4:50 AM,60.8,60.8,100,29.83,3.7,Variable,1.2,-,N/A,,Scattered Clouds,0,2012-10-14 02:50:00
5:20 AM,60.8,60.8,100,29.83,3.7,Variable,1.2,-,N/A,,Scattered Clouds,0,2012-10-14 03:20:00
5:50 AM,60.8,60.8,100,29.83,5.0,NW,2.3,-,N/A,,Partly Cloudy,310,2012-10-14 03:50:00
6:20 AM,60.8,60.8,100,29.83,5.0,Variable,2.3,-,N/A,,Partly Cloudy,0,2012-10-14 04:20:00
6:50 AM,60.8,60.8,100,29.83,5.0,North,1.2,-,N/A,,Partly Cloudy,360,2012-10-14 04:50:00
7:20 AM,60.8,60.8,100,29.83,5.0,North,3.5,-,N/A,,Scattered Clouds,350,2012-10-14 05:20:00
7:50 AM,62.6,62.6,100,29.83,5.0,North,3.5,-,N/A,,Scattered Clouds,350,2012-10-14 05:50:00
8:20 AM,62.6,62.6,100,29.86,5.0,NNW,3.5,-,N/A,,Scattered Clouds,340,2012-10-14 06:20:00
8:50 AM,62.6,62.6,100,29.86,6.2,Variable,2.3,-,N/A,,Scattered Clouds,0,2012-10-14 06:50:00
9:20 AM,64.4,62.6,94,29.86,6.2,North,3.5,-,N/A,,Partly Cloudy,350,2012-10-14 07:20:00
9:50 AM,66.2,64.4,94,29.86,6.2,North,3.5,-,N/A,,Partly Cloudy,10,2012-10-14 07:50:00
10:20 AM,68.0,64.4,88,29.86,6.2,NE,4.6,-,N/A,,Partly Cloudy,40,2012-10-14 08:20:00
10:50 AM,69.8,64.4,83,29.86,6.2,NE,3.5,-,N/A,,Partly Cloudy,50,2012-10-14 08:50:00
11:20 AM,73.4,64.4,73,29.86,6.2,Variable,2.3,-,N/A,,Partly Cloudy,0,2012-10-14 09:20:00
11:50 AM,75.2,62.6,65,29.86,6.2,South,3.5,-,N/A,,Partly Cloudy,170,2012-10-14 09:50:00
12:20 PM,73.4,62.6,69,29.83,6.2,SSW,5.8,-,N/A,,Scattered Clouds,210,2012-10-14 10:20:00
12:50 PM,75.2,62.6,65,29.83,6.2,SSW,5.8,-,N/A,,Scattered Clouds,210,2012-10-14 10:50:00
1:20 PM,75.2,62.6,65,29.83,6.2,South,6.9,-,N/A,,Scattered Clouds,190,2012-10-14 11:20:00
1:50 PM,75.2,60.8,61,29.83,6.2,South,6.9,-,N/A,,Scattered Clouds,180,2012-10-14 11:50:00
2:20 PM,75.2,62.6,65,29.83,6.2,SSW,8.1,-,N/A,,Scattered Clouds,200,2012-10-14 12:20:00
2:50 PM,75.2,62.6,65,29.80,6.2,South,8.1,-,N/A,,Scattered Clouds,180,2012-10-14 12:50:00
3:20 PM,75.2,62.6,65,29.80,6.2,SSW,5.8,-,N/A,,Scattered Clouds,200,2012-10-14 13:20:00
3:50 PM,75.2,64.4,69,29.80,6.2,South,5.8,-,N/A,,Scattered Clouds,170,2012-10-14 13:50:00
4:20 PM,73.4,62.6,69,29.80,6.2,SSW,6.9,-,N/A,,Partly Cloudy,200,2012-10-14 14:20:00
4:50 PM,75.2,64.4,69,29.80,6.2,South,5.8,-,N/A,,Partly Cloudy,180,2012-10-14 14:50:00
5:20 PM,73.4,62.6,69,29.80,6.2,SSW,5.8,-,N/A,,Partly Cloudy,200,2012-10-14 15:20:00
5:50 PM,71.6,62.6,73,29.80,6.2,SSW,4.6,-,N/A,,Partly Cloudy,210,2012-10-14 15:50:00
6:20 PM,71.6,62.6,73,29.80,6.2,SSW,3.5,-,N/A,,Partly Cloudy,210,2012-10-14 16:20:00
6:50 PM,71.6,62.6,73,29.80,6.2,SW,3.5,-,N/A,,Partly Cloudy,220,2012-10-14 16:50:00
7:20 PM,71.6,62.6,73,29.80,6.2,SSW,3.5,-,N/A,,Partly Cloudy,210,2012-10-14 17:20:00
7:50 PM,71.6,64.4,78,29.80,6.2,Variable,2.3,-,N/A,,Partly Cloudy,0,2012-10-14 17:50:00
8:20 PM,69.8,62.6,78,29.80,6.2,Variable,2.3,-,N/A,,Partly Cloudy,0,2012-10-14 18:20:00
8:50 PM,69.8,62.6,78,29.80,6.2,Variable,2.3,-,N/A,,Partly Cloudy,0,2012-10-14 18:50:00
9:20 PM,69.8,62.6,78,29.80,6.2,NNE,3.5,-,N/A,,Scattered Clouds,20,2012-10-14 19:20:00
9:50 PM,69.8,64.4,83,29.80,6.2,Variable,2.3,-,N/A,,Scattered Clouds,0,2012-10-14 19:50:00
10:20 PM,68.0,62.6,83,29.80,6.2,NNE,4.6,-,N/A,,Scattered Clouds,20,2012-10-14 20:20:00
10:50 PM,68.0,60.8,78,29.80,6.2,Variable,2.3,-,N/A,,Scattered Clouds,0,2012-10-14 20:50:00
11:20 PM,66.2,60.8,83,29.80,6.2,Variable,2.3,-,N/A,,Scattered Clouds,0,2012-10-14 21:20:00
11:50 PM,68.0,62.6,83,29.80,6.2,West,4.6,-,N/A,,Scattered Clouds,260,2012-10-14 21:50:00